Tracking 19908 objects as of 19-Oct-2019
HD Live streaming from Space Station
objects crossing your sky now

BREEZE-M DEB

Track BREEZE-M DEB now!


NORAD ID: 43414
Int'l Code: 2014-007D
Perigee: 8,147.4 km
Apogee: 34,297.0 km
Inclination: 13.3 °
Period: 760.3 minutes
Semi major axis: 27593 km
RCS: Unknown
Launch date: February 14, 2014
Source: Commonwealth of Independent States (former USSR) (CIS)
Launch site: TYURATAM MISSILE AND SPACE COMPLEX (TTMTR)

Note: This is SATELLITE DEBRIS
aabbcc
Your satellite tracking list
Your tracking list is empty




NASA's NSSDC Master Catalog

Two Line Element Set (TLE):
1 43414U 14007D   19291.29125438 -.00000043 +00000-0 +00000-0 0  9992
2 43414 013.3164 275.6061 4738423 025.0603 351.9638 01.89408788034645
Source of the keplerian elements: AFSPC